TimeCDT,TemperatureF,Dew PointF,Humidity,Sea Level PressureIn,VisibilityMPH,Wind Direction,Wind SpeedMPH,Gust SpeedMPH,PrecipitationIn,Events,Conditions,WindDirDegrees,DateUTC
12:15 AM,48.4,39.6,72,30.20,10.0,North,-9999.0,-,N/A,,Clear,0,2013-10-27 05:15:00
12:35 AM,48.4,38.5,69,30.19,10.0,North,-9999.0,-,N/A,,Clear,0,2013-10-27 05:35:00
12:55 AM,47.7,37.6,68,30.19,10.0,North,-9999.0,-,N/A,,Clear,0,2013-10-27 05:55:00
1:15 AM,45.9,36.9,71,30.18,10.0,North,-9999.0,-,N/A,,Clear,0,2013-10-27 06:15:00
1:35 AM,41.7,37.4,85,30.18,10.0,North,-9999.0,-,N/A,,Clear,0,2013-10-27 06:35:00
1:55 AM,44.6,36.0,72,30.18,10.0,North,-9999.0,-,N/A,,Clear,0,2013-10-27 06:55:00
2:15 AM,44.2,35.4,71,30.18,10.0,North,-9999.0,-,N/A,,Clear,0,2013-10-27 07:15:00
2:35 AM,42.4,35.1,75,30.18,10.0,North,-9999.0,-,N/A,,Clear,0,2013-10-27 07:35:00
2:55 AM,39.4,35.2,85,30.18,10.0,North,-9999.0,-,N/A,,Clear,0,2013-10-27 07:55:00
3:15 AM,37.4,35.6,93,30.18,10.0,North,-9999.0,-,N/A,,Clear,0,2013-10-27 08:15:00
3:35 AM,36.7,35.6,96,30.17,10.0,North,-9999.0,-,N/A,,Clear,0,2013-10-27 08:35:00
3:55 AM,36.5,36.5,100,30.17,10.0,North,-9999.0,-,N/A,,Clear,0,2013-10-27 08:55:00
4:15 AM,36.5,34.9,94,30.16,10.0,North,-9999.0,-,N/A,,Clear,0,2013-10-27 09:15:00
4:35 AM,35.6,35.2,99,30.16,10.0,North,-9999.0,-,N/A,,Clear,0,2013-10-27 09:35:00
4:55 AM,35.6,34.2,94,30.16,10.0,North,-9999.0,-,N/A,,Clear,0,2013-10-27 09:55:00
5:15 AM,34.7,33.8,97,30.15,10.0,North,-9999.0,-,N/A,,Clear,0,2013-10-27 10:15:00
5:35 AM,34.7,34.7,100,30.15,10.0,North,-9999.0,-,N/A,,Clear,0,2013-10-27 10:35:00
5:55 AM,34.5,34.5,100,30.15,10.0,North,-9999.0,-,N/A,,Clear,0,2013-10-27 10:55:00
6:15 AM,33.8,33.8,100,30.15,10.0,North,-9999.0,-,N/A,,Clear,0,2013-10-27 11:15:00
6:35 AM,33.4,32.9,98,30.14,10.0,North,-9999.0,-,N/A,,Clear,0,2013-10-27 11:35:00
6:55 AM,32.9,32.9,100,30.14,10.0,North,-9999.0,-,N/A,,Clear,0,2013-10-27 11:55:00
7:15 AM,32.9,32.9,100,30.14,10.0,North,-9999.0,-,N/A,,Clear,0,2013-10-27 12:15:00
7:35 AM,32.4,32.4,100,30.13,10.0,North,-9999.0,-,N/A,,Clear,0,2013-10-27 12:35:00
7:55 AM,32.9,32.9,100,30.13,10.0,North,-9999.0,-,N/A,,Clear,0,2013-10-27 12:55:00
8:15 AM,32.5,32.5,100,30.14,10.0,North,-9999.0,-,N/A,,Clear,0,2013-10-27 13:15:00
8:35 AM,34.2,34.2,100,30.14,10.0,North,-9999.0,-,N/A,,Clear,0,2013-10-27 13:35:00
8:55 AM,36.5,36.3,99,30.14,10.0,North,-9999.0,-,N/A,,Clear,0,2013-10-27 13:55:00
9:15 AM,39.9,36.1,86,30.13,10.0,North,-9999.0,-,N/A,,Clear,0,2013-10-27 14:15:00
9:35 AM,43.3,37.8,81,30.14,10.0,North,-9999.0,-,N/A,,Clear,0,2013-10-27 14:35:00
9:55 AM,44.6,38.1,78,30.14,10.0,North,-9999.0,-,N/A,,Clear,0,2013-10-27 14:55:00
10:15 AM,47.5,39.2,73,30.14,10.0,North,-9999.0,-,N/A,,Clear,0,2013-10-27 15:15:00
10:35 AM,50.2,39.4,66,30.14,10.0,North,-9999.0,-,N/A,,Clear,0,2013-10-27 15:35:00
10:55 AM,53.2,40.1,61,30.14,10.0,North,-9999.0,-,N/A,,Clear,0,2013-10-27 15:55:00
11:15 AM,55.6,40.8,58,30.14,10.0,North,-9999.0,-,N/A,,Clear,0,2013-10-27 16:15:00
11:35 AM,57.6,37.2,47,30.13,10.0,North,-9999.0,-,N/A,,Clear,0,2013-10-27 16:35:00
11:55 AM,58.8,37.0,44,30.13,10.0,North,-9999.0,-,N/A,,Clear,0,2013-10-27 16:55:00
12:15 PM,59.4,34.7,40,30.12,10.0,North,-9999.0,-,N/A,,Clear,0,2013-10-27 17:15:00
12:35 PM,60.6,36.1,40,30.12,10.0,Calm,Calm,-,N/A,,Clear,0,2013-10-27 17:35:00
12:55 PM,61.7,36.0,38,30.11,10.0,Calm,Calm,-,N/A,,Clear,0,2013-10-27 17:55:00
1:15 PM,63.1,37.2,38,30.10,10.0,Calm,Calm,-,N/A,,Clear,0,2013-10-27 18:15:00
1:35 PM,63.7,36.3,36,30.09,10.0,Calm,Calm,-,N/A,,Clear,0,2013-10-27 18:35:00
1:55 PM,64.0,36.9,37,30.07,10.0,Calm,Calm,-,N/A,,Clear,0,2013-10-27 18:55:00
2:15 PM,64.9,36.5,35,30.06,10.0,Calm,Calm,-,N/A,,Clear,0,2013-10-27 19:15:00
2:35 PM,65.8,35.8,33,30.04,10.0,Calm,Calm,-,N/A,,Clear,0,2013-10-27 19:35:00
2:55 PM,66.4,35.4,32,30.03,10.0,Calm,Calm,-,N/A,,Clear,0,2013-10-27 19:55:00
3:15 PM,67.3,34.5,30,30.02,10.0,Calm,Calm,-,N/A,,Clear,0,2013-10-27 20:15:00
3:35 PM,67.5,33.1,28,30.01,10.0,Calm,Calm,-,N/A,,Clear,0,2013-10-27 20:35:00
3:55 PM,67.8,32.5,27,30.01,10.0,Calm,Calm,-,N/A,,Clear,0,2013-10-27 20:55:00
4:15 PM,68.0,33.8,28,30.00,10.0,Calm,Calm,-,N/A,,Clear,0,2013-10-27 21:15:00
4:35 PM,68.2,32.4,26,29.99,10.0,Calm,Calm,-,N/A,,Clear,0,2013-10-27 21:35:00
4:55 PM,68.0,32.2,26,29.99,10.0,Calm,Calm,-,N/A,,Clear,0,2013-10-27 21:55:00
5:15 PM,67.6,33.8,29,29.98,10.0,Calm,Calm,-,N/A,,Clear,0,2013-10-27 22:15:00
5:35 PM,67.1,36.0,32,29.98,10.0,Calm,Calm,-,N/A,,Clear,0,2013-10-27 22:35:00
5:55 PM,66.4,34.5,31,29.97,10.0,Calm,Calm,-,N/A,,Clear,0,2013-10-27 22:55:00
6:15 PM,64.9,35.4,33,29.97,10.0,Calm,Calm,-,N/A,,Clear,0,2013-10-27 23:15:00
6:35 PM,62.8,35.6,36,29.97,10.0,North,-9999.0,-,N/A,,Clear,0,2013-10-27 23:35:00
6:55 PM,60.8,35.1,38,29.97,10.0,North,-9999.0,-,N/A,,Clear,0,2013-10-27 23:55:00
7:15 PM,59.2,35.6,41,29.97,10.0,North,-9999.0,-,N/A,,Clear,0,2013-10-28 00:15:00
7:35 PM,58.1,35.8,43,29.97,10.0,North,-9999.0,-,N/A,,Clear,0,2013-10-28 00:35:00
7:55 PM,56.7,36.0,46,29.98,10.0,North,-9999.0,-,N/A,,Clear,0,2013-10-28 00:55:00
8:15 PM,56.1,37.0,49,29.98,10.0,North,-9999.0,-,N/A,,Clear,0,2013-10-28 01:15:00
8:35 PM,53.4,37.4,55,29.98,10.0,North,-9999.0,-,N/A,,Clear,0,2013-10-28 01:35:00
8:55 PM,54.5,39.0,56,29.98,10.0,North,-9999.0,-,N/A,,Clear,0,2013-10-28 01:55:00
9:15 PM,53.8,40.5,61,29.98,10.0,North,-9999.0,-,N/A,,Clear,0,2013-10-28 02:15:00
9:35 PM,52.2,41.0,66,29.98,10.0,North,-9999.0,-,N/A,,Clear,0,2013-10-28 02:35:00
9:55 PM,52.2,43.9,73,29.98,10.0,North,-9999.0,-,N/A,,Clear,0,2013-10-28 02:55:00
10:15 PM,51.3,44.8,78,29.98,10.0,North,-9999.0,-,N/A,,Clear,0,2013-10-28 03:15:00
10:35 PM,51.8,47.3,85,29.98,10.0,North,-9999.0,-,N/A,,Clear,0,2013-10-28 03:35:00
10:55 PM,53.6,49.8,87,29.99,10.0,North,-9999.0,-,N/A,,Clear,0,2013-10-28 03:55:00
11:15 PM,54.0,50.9,89,29.99,10.0,North,-9999.0,-,N/A,,Clear,0,2013-10-28 04:15:00
11:35 PM,54.0,51.8,92,29.98,10.0,North,-9999.0,-,N/A,,Clear,0,2013-10-28 04:35:00
11:55 PM,54.5,52.7,94,29.98,10.0,North,-9999.0,-,N/A,,Clear,0,2013-10-28 04:55:00